User: anonymous   Login
Location: Kalberh�ni
(46.4610°N, 7.2453°E)
Time: 02:12:42
(UTC+00:00)
Language:

Cosmos 1812 Rocket - Orbit

View from above orbital plane
View from above orbital plane
View from above satellite
View from above satellite

Ground track
Ground track

The orbit data is extracted from the following two-line orbital elements,

1 17296U 87003B   21267.72116324  .00000132  00000-0  13056-4 0  9992
2 17296  82.5334   5.2877 0020443 114.2346 246.1008 14.83350291853356
Epoch (UTC): 24 September 2021 17:18:28
Eccentricity: 0.0020443
inclination: 82.5334°
perigee height: 604 km
apogee height: 633 km
right ascension of ascending node: 5.2877°
argument of perigee: 114.2346°
revolutions per day: 14.83350291
mean anomaly at epoch: 246.1008°
orbit number at epoch: 85335

The dashed part of the orbit path shows where the satellite is in the earth's shadow,  

DLR